| time (UTC) | temp F | wind direction | speed knots | gust knots | rain 1hr in | rain 24hr in | rain mn in | humidity % | barometer mb |
| 20260904141456 | 71 | 261 | 0.9 | 2.6 | 0.00 | 0.55 | 0.00 | 87 | 1016.5 |
| 20260904135959 | 71 | 305 | 0.9 | 4.3 | 0.00 | 0.55 | 0.00 | 88 | 1016.5 |
| 20260904134457 | 70 | 251 | 0.9 | 2.6 | 0.00 | 0.55 | 0.00 | 89 | 1016.6 |
| 20260904132957 | 69 | 321 | 0.9 | 4.3 | 0.00 | 0.55 | 0.00 | 89 | 1016.5 |
| 20260904131457 | 68 | 273 | 0.9 | 5.2 | 0.00 | 0.55 | 0.00 | 91 | 1016.7 |
| 20260904130000 | 67 | 304 | 1.7 | 3.5 | 0.00 | 0.55 | 0.00 | 93 | 1016.6 |
| 20260904124458 | 66 | 246 | 1.7 | 3.5 | 0.00 | 0.56 | 0.00 | 95 | 1016.6 |
| 20260904122957 | 65 | 279 | 0.9 | 3.5 | 0.00 | 0.56 | 0.00 | 97 | 1016.5 |
| 20260904120001 | 63 | 257 | 0.0 | 0.9 | 0.00 | 0.56 | 0.00 | 98 | 1016.4 |
| 20260904114457 | 62 | 257 | 0.0 | 0.0 | 0.00 | 0.56 | 0.00 | 98 | 1016.3 |
| 20260904112957 | 62 | 257 | 0.0 | 0.0 | 0.00 | 0.56 | 0.00 | 97 | 1016.3 |
| 20260904111456 | 62 | 257 | 0.0 | 0.0 | 0.00 | 0.56 | 0.00 | 97 | 1016.2 |
| 20260904105959 | 62 | 257 | 0.0 | 0.0 | 0.00 | 0.56 | 0.00 | 97 | 1016.1 |
| 20260904104457 | 62 | 257 | 0.0 | 0.0 | 0.00 | 0.56 | 0.00 | 97 | 1016.0 |
| 20260904095958 | 63 | 257 | 0.0 | 0.9 | 0.00 | 0.56 | 0.00 | 96 | 1015.7 |
| 20260904094455 | 64 | 307 | 0.0 | 1.7 | 0.00 | 0.56 | 0.00 | 96 | 1015.6 |
| 20260904091455 | 64 | 307 | 0.0 | 0.0 | 0.00 | 0.56 | 0.00 | 96 | 1015.6 |
| 20260904085959 | 64 | 307 | 0.0 | 0.9 | 0.00 | 0.56 | 0.00 | 96 | 1015.6 |
| 20260904084455 | 64 | 307 | 0.0 | 0.9 | 0.00 | 0.56 | 0.00 | 96 | 1015.4 |
| 20260904082956 | 64 | 307 | 0.0 | 0.9 | 0.00 | 0.56 | 0.00 | 96 | 1015.4 |
| 20260904081456 | 64 | 307 | 0.0 | 0.0 | 0.00 | 0.56 | 0.00 | 95 | 1015.2 |
| 20260904075959 | 64 | 307 | 0.0 | 1.7 | 0.00 | 0.56 | 0.00 | 96 | 1015.0 |
| 20260904074458 | 64 | 274 | 0.0 | 1.7 | 0.00 | 0.56 | 0.00 | 96 | 1015.0 |
| 20260904072955 | 64 | 282 | 0.0 | 0.9 | 0.00 | 0.56 | 0.00 | 96 | 1015.0 |
| 20260904071455 | 65 | 282 | 0.0 | 0.9 | 0.00 | 0.56 | 0.00 | 96 | 1014.9 |
| 20260904070000 | 65 | 282 | 0.0 | 2.6 | 0.00 | 0.56 | 0.00 | 96 | 1014.8 |
| 20260904062955 | 66 | 309 | 0.0 | 2.6 | 0.00 | 0.56 | 0.00 | 98 | 1014.8 |
| 20260904061455 | 66 | 309 | 0.0 | 0.9 | 0.00 | 0.56 | 0.00 | 97 | 1014.8 |
| 20260904060000 | 67 | 309 | 0.0 | 0.9 | 0.00 | 0.56 | 0.00 | 98 | 1014.9 |
| 20260904054455 | 67 | 309 | 0.9 | 0.9 | 0.00 | 0.56 | 0.00 | 97 | 1015.1 |
| 20260904052955 | 67 | 309 | 0.9 | 1.7 | 0.00 | 0.56 | 0.00 | 97 | 1015.2 |
| 20260904051455 | 68 | 309 | 0.0 | 0.9 | 0.00 | 0.56 | 0.00 | 98 | 1015.3 |
| 20260904044455 | 69 | 309 | 0.9 | 1.7 | 0.00 | 0.56 | 0.00 | 98 | 1015.4 |
| 20260904041454 | 70 | 35 | 0.0 | 0.9 | 0.00 | 0.56 | 0.00 | 98 | 1015.3 |
| 20260904040006 | 70 | 35 | 0.0 | 0.0 | 0.00 | 0.56 | 0.00 | 98 | 1015.2 |
| 20260904034459 | 70 | 35 | 0.0 | 0.0 | 0.00 | 0.56 | 0.56 | 98 | 1015.1 |
| 20260904032959 | 70 | 35 | 0.0 | 0.9 | 0.00 | 0.56 | 0.56 | 98 | 1015.0 |
| 20260904031458 | 70 | 35 | 0.0 | 0.0 | 0.00 | 0.56 | 0.56 | 98 | 1014.9 |
| 20260904030001 | 70 | 35 | 0.0 | 0.0 | 0.00 | 0.56 | 0.56 | 98 | 1014.7 |
| 20260904023000 | 71 | 35 | 0.0 | 0.0 | 0.00 | 0.56 | 0.56 | 97 | 1014.7 |
| 20260904021458 | 71 | 35 | 0.0 | 0.0 | 0.00 | 0.56 | 0.56 | 97 | 1014.8 |
| 20260904020001 | 72 | 35 | 0.0 | 0.0 | 0.27 | 0.56 | 0.56 | 97 | 1014.8 |
| 20260904012959 | 72 | 35 | 0.0 | 1.7 | 0.53 | 0.56 | 0.56 | 97 | 1014.5 |
| 20260904010645 | 73 | 252 | 1.7 | 2.6 | 0.37 | 0.40 | 0.40 | 96 | 1014.7 |